Starlink 31985

operational
NORAD ID: 60036 Int'l Des: 2024-111 Owner: SPXS Country: US Constellation: starlink
LEOCIRCULAR

关于 Starlink 31985

正在加载描述...

实时位置

正在加载3D地球...

即将过境

高度历史

Altitude vs Time

uPlot chart will show altitude changes over time

两行轨道根数

1 60036U 24111W 25306.20577056 .00001018 00000-0 46516-4 0 9998
2 60036 53.1601 307.8779 0001388 90.2672 269.8488 15.30188540 79455
Epoch: Nov 2, 2025 • Age: 28 hours

当前状态

高度 493.6 km
速度 7.62 km/s
星下点 -50.34°S, 63.12°E
发射日期 Jun 8, 2024
运行时间 1.4 years
类型 internet

技术详情

分类 Payload
质量 730.00 kg
干质量 700.00 kg
总质量 730.00 kg
长度 0.30 m
直径 4.10 m
跨度 29.00 m
形状 Box + pan
制造商 SPXS
平台类型 Starlink V2M
阶段状态 In Orbit
所有者/国家 SPXS/US

大型星座

Loading constellations...